sat.trackr.live / text

‹ back to catalog

KUIPER-00120

NORAD 65762 · 2025-217A

PAYLOAD ACTIVE UNKNOWN

§ Identity

Operator
Country
US
Launch date
2025-09-25
Launch site
AFETR
Launch vehicle
Mass (kg)
RCS (m²)

External: N2YO · Heavens-Above · Gunter

§ Orbital elements

Epoch: 2026-05-25T04:24:39.383424Z

Period
97.30 min
Inclination
51.8991°
Eccentricity
0.0000725
Mean motion
14.79940952 rev/d
Perigee alt
629.0 km
Apogee alt
630.0 km
Semi-major
7,007.6 km
B*
4.9567e-4
RAAN
74.8028°
Arg perigee
90.0711°
Mean anomaly
270.0335°
Rev number
3,606

§ Raw data

KUIPER-001201 65762U 25217A   26145.18378916  .00003560  00000+0  49567-3 0  99912 65762  51.8991  74.8028 0000725  90.0711 270.0335 14.79940952 36067

JSON: /api/v1/satellites/65762 · /tle

For live sub-satellite position, see the globe view (requires WebGL).

§ Visibility from observer

Set your observer location to see the next 7 days of passes ≥ 10°. The values pass through the URL so the page stays shareable.

No JS? Fill the form by hand. The geolocation button needs JavaScript.